[[{"header":{"parameterUnit":"m.s-1","parameterCategory":1,"la1":30.2991,"la2":30.254,"lo1":-89.0895,"lo2":-89.0444,"dy":0.0017,"dx":0.0017,"nx":28,"ny":28,"refTime":"2023-11-09T09:00:00:Z","depth":0,"parameterNumber":2,"parameterNumberName":"U-component_of_WINDS"},"data":[0,0,0,0,0,0,0,0,0,0,0,0,0,0,0,0,0,0,0,0,0,0,0,0,0,0,0,0,0,0,0,0,0,0,0,0,0,0,0,0,0,0,0,0,0,0,0,0,0,0,0,0,0,0,0,0,0,0,-2.7577,-2.7576,0,-2.7529,-2.7529,-2.7528,-2.7468,-2.7467,-2.7466,-2.7465,-2.7417,-2.7417,-2.7416,0,0,0,0,0,0,0,0,0,0,0,0,0,-2.7617,-2.7616,-2.7577,-2.7576,-2.7576,-2.753,-2.7529,-2.7528,-2.7468,-2.7467,-2.7466,-2.7465,-2.7417,-2.7417,-2.7416,0,0,0,0,0,0,0,0,0,0,0,0,0,-2.7587,-2.7616,-2.7577,-2.754,-2.7536,-2.753,-2.7529,-2.7528,-2.7468,-2.7467,-2.7465,-2.7464,-2.7417,-2.7417,-2.7416,-2.7442,0,0,-2.7415,-2.7414,0,0,0,0,0,0,0,0,-2.7589,-2.7586,-2.7546,-2.7543,-2.7538,-2.7503,-2.7525,-2.7499,-2.7469,-2.7494,-2.7465,-2.7463,-2.7447,-2.7444,-2.7438,-2.744,-2.7438,-2.7414,-2.7414,-2.7414,-2.7414,0,0,0,0,0,0,0,-2.7591,-2.7588,-2.7558,-2.7546,-2.7541,-2.7526,-2.7521,-2.752,-2.7479,-2.7492,-2.7487,-2.7483,-2.7444,-2.7439,-2.7437,-2.7437,-2.7415,-2.7414,-2.7414,-2.7413,-2.7459,-2.7461,0,0,0,0,0,0,-2.7599,-2.759,-2.756,-2.7557,-2.7561,-2.7527,-2.752,-2.7516,-2.7479,-2.7472,-2.7484,-2.748,-2.744,-2.7437,-2.7435,-2.7463,-2.7414,-2.7413,-2.7413,-2.7458,-2.746,-2.7461,0,0,0,0,0,0,-2.76,-2.7596,-2.7561,-2.7572,-2.7566,-2.7528,-2.7523,-2.7516,-2.751,-2.7473,-2.7466,-2.7485,-2.7439,-2.7435,-2.7441,-2.746,-2.7413,-2.7413,-2.7456,-2.7458,-2.746,-2.752,0,0,0,0,0,0,-2.7601,-2.7597,-2.7606,-2.7573,-2.7566,-2.7568,-2.7524,-2.7516,-2.7509,-2.7503,-2.7473,-2.7466,-2.7438,-2.7442,-2.744,-2.7459,-2.7412,-2.7454,-2.7457,-2.746,-2.7516,-2.7524,-2.753,0,0,0,0,0,-2.7603,-2.7624,-2.7607,-2.7603,-2.7576,-2.7569,-2.7566,-2.7532,-2.7511,-2.752,-2.7497,-2.7467,-2.7459,-2.7443,-2.7441,-2.7459,-2.7452,-2.7456,-2.7459,-2.7512,-2.7522,-2.753,0,0,0,0,0,0,-2.7661,-2.7619,-2.7599,-2.7611,-2.7594,-2.7559,-2.7569,-2.7544,-2.7533,-2.7528,-2.7488,-2.7481,-2.7492,-2.7476,-2.7459,-2.7483,-2.7451,-2.7455,-2.7493,-2.7501,-2.7509,-2.7512,-2.7412,0,0,0,0,0,-2.7675,-2.7672,-2.7637,-2.765,-2.7643,-2.7608,-2.7604,-2.758,-2.7561,-2.7553,-2.753,-2.7513,-2.7507,-2.7504,-2.7496,-2.7514,-2.7507,-2.7526,-2.7533,-2.7539,-2.7542,-2.7551,-2.756,-2.7473,-2.7473,-2.7472,0,0,-2.7704,-2.7681,-2.7682,-2.7661,-2.7646,-2.7644,-2.7602,-2.7602,-2.7601,-2.7553,-2.7557,-2.754,-2.7519,-2.7531,-2.7535,-2.7518,-2.7565,-2.7544,-2.7549,-2.7548,-2.7556,-2.7564,-2.7571,-2.7475,-2.7475,-2.7474,0,0,-2.7756,-2.7739,-2.7748,-2.7734,-2.7711,-2.7688,-2.7691,-2.766,-2.7647,-2.765,-2.7614,-2.7613,-2.7603,-2.7589,-2.7581,-2.7631,-2.7604,-2.763,-2.7668,-2.7677,-2.7684,-2.769,-2.7708,-2.7715,-2.7633,-2.7633,-2.7633,0,-2.7795,-2.7791,-2.7757,-2.7759,-2.7752,-2.7709,-2.7719,-2.7707,-2.7683,-2.7679,-2.7661,-2.7648,-2.763,-2.7639,-2.7652,-2.7647,-2.7649,-2.7632,-2.7686,-2.7691,-2.7696,-2.7713,-2.772,-2.7636,-2.7636,-2.7636,-2.7635,0,-2.7841,-2.7839,-2.785,-2.7828,-2.7822,-2.7828,-2.7795,-2.7793,-2.7771,-2.775,-2.7755,-2.7733,-2.772,-2.7721,-2.7698,-2.7727,-2.7717,-2.7693,-2.766,-2.7709,-2.7724,-2.773,-2.7641,-2.764,-2.7639,-2.7638,0,0,-2.7925,-2.7886,-2.789,-2.788,-2.7853,-2.7851,-2.7857,-2.7845,-2.7844,-2.783,-2.7833,-2.7827,-2.7805,-2.7796,-2.7772,-2.7781,-2.7822,-2.7755,-2.7754,-2.7768,-2.7853,-2.7871,-2.7878,-2.7805,-2.7806,-2.7807,-2.7855,0,-2.7972,-2.7978,-2.7948,-2.7962,-2.7961,-2.7922,-2.7927,-2.7911,-2.7893,-2.7889,-2.7869,-2.7865,-2.7836,-2.783,-2.7837,-2.7816,-2.7838,-2.7812,-2.7808,-2.7808,-2.7813,-2.7886,-2.7904,-2.795,-2.786,-2.7861,-2.7862,0,-2.8026,-2.8015,-2.803,-2.8003,-2.8001,-2.8006,-2.7993,-2.799,-2.7973,-2.7959,-2.795,-2.7923,-2.7927,-2.7897,-2.7903,-2.7885,-2.7883,-2.7872,-2.7873,-2.787,-2.7837,-2.7885,-2.7964,-2.7971,-2.7871,-2.787,-2.7869,0,-2.8087,-2.8076,-2.8083,-2.8076,-2.8045,-2.8049,-2.8037,-2.8017,-2.8013,-2.8002,-2.7999,-2.7989,-2.7983,-2.7977,-2.7949,-2.7929,-2.7958,-2.7925,-2.7947,-2.7948,-2.7953,-2.7953,-2.8033,-2.7953,-2.7953,-2.7953,-2.7953,0,-2.8141,-2.8151,-2.811,-2.8114,-2.8125,-2.8092,-2.8103,-2.8087,-2.8071,-2.8072,-2.8038,-2.804,-2.8003,-2.8001,-2.7979,-2.7988,-2.7986,-2.7975,-2.7969,-2.7977,-2.7979,-2.7974,-2.7969,-2.7955,-2.7954,-2.7954,-2.7953,0,-2.8209,-2.8182,-2.8187,-2.8159,-2.8152,-2.8161,-2.8136,-2.814,-2.812,-2.8122,-2.8121,-2.809,-2.8086,-2.8058,-2.8048,-2.8033,-2.805,-2.8038,-2.8056,-2.8051,-2.8074,-2.8072,-2.8153,-2.8162,-2.8077,-2.8078,-2.8079,0,-2.8245,-2.8252,-2.8225,-2.8223,-2.8212,-2.821,-2.8205,-2.8174,-2.817,-2.8152,-2.8158,-2.8151,-2.8144,-2.8141,-2.8117,-2.811,-2.8097,-2.8126,-2.8096,-2.8105,-2.8097,-2.8097,-2.8098,-2.8132,-2.8133,-2.8134,-2.8135,0,-2.8312,-2.8299,-2.8293,-2.8283,-2.8279,-2.827,-2.8258,-2.8259,-2.8224,-2.8222,-2.8218,-2.8213,-2.8204,-2.8198,-2.8187,-2.8174,-2.8149,-2.8145,-2.8149,-2.8157,-2.8167,-2.8162,-2.8072,-2.8143,-2.8142,-2.8141,-2.8141,-2.8141,-2.8364,-2.8369,-2.8351,-2.8347,-2.8335,-2.8326,-2.8328,-2.8309,-2.8305,-2.8295,-2.8277,-2.8276,-2.8259,-2.8242,-2.8232,-2.8231,-2.8216,-2.8223,-2.8224,-2.8226,-2.8231,-2.8169,-2.8229,-2.8229,-2.8229,-2.8229,-2.8228,0,-2.8429,-2.8416,-2.8412,-2.8398,-2.8395,-2.8372,-2.8359,-2.8358,-2.8357,-2.8344,-2.8339,-2.8335,-2.833,-2.8308,-2.8301,-2.8304,-2.8293,-2.8304,-2.8302,-2.83,-2.8245,-2.8241,-2.8313,-2.8313,-2.8313,-2.8313,-2.8313,-2.8313,-2.8462,-2.8469,-2.8454,-2.8456,-2.8443,-2.8442,-2.8437,-2.8428,-2.8418,-2.8415,-2.8411,-2.8397,-2.838,-2.8372,-2.8367,-2.8361,-2.8359,-2.8374,-2.8364,-2.8312,-2.8304,-2.8296,-2.8293,-2.8374,-2.8374,-2.8419,-2.842,-2.842]},{"header":{"parameterUnit":"m.s-1","parameterCategory":1,"la1":30.2991,"la2":30.254,"lo1":-89.0895,"lo2":-89.0444,"dy":0.0017,"dx":0.0017,"nx":28,"ny":28,"refTime":"2023-11-09T09:00:00:Z","depth":0,"parameterNumber":3,"parameterNumberName":"V-component_of_WINDS"},"data":[0,0,0,0,0,0,0,0,0,0,0,0,0,0,0,0,0,0,0,0,0,0,0,0,0,0,0,0,0,0,0,0,0,0,0,0,0,0,0,0,0,0,0,0,0,0,0,0,0,0,0,0,0,0,0,0,0,0,1.1412,1.1412,0,1.142,1.142,1.142,1.1487,1.1489,1.1491,1.1492,1.1497,1.1495,1.1494,0,0,0,0,0,0,0,0,0,0,0,0,0,1.1454,1.1453,1.1412,1.1412,1.1412,1.142,1.142,1.142,1.1487,1.1489,1.1491,1.1493,1.1497,1.1495,1.1494,0,0,0,0,0,0,0,0,0,0,0,0,0,1.1446,1.1453,1.1412,1.1447,1.145,1.1419,1.142,1.142,1.1487,1.1489,1.1492,1.1494,1.1498,1.1495,1.1493,1.1429,0,0,1.1487,1.1486,0,0,0,0,0,0,0,0,1.1446,1.1444,1.1442,1.1444,1.1448,1.1455,1.1436,1.1423,1.1486,1.1473,1.1492,1.1495,1.1481,1.148,1.1476,1.1429,1.1429,1.1486,1.1485,1.1484,1.1484,0,0,0,0,0,0,0,1.1447,1.1444,1.1415,1.1441,1.1445,1.1461,1.1463,1.1434,1.1462,1.1474,1.1479,1.1479,1.1483,1.1478,1.1476,1.1429,1.1486,1.1485,1.1483,1.1482,1.1332,1.133,0,0,0,0,0,0,1.1443,1.1445,1.1415,1.1415,1.1454,1.1459,1.146,1.145,1.1463,1.1467,1.1477,1.1482,1.148,1.1479,1.1477,1.1403,1.1484,1.1482,1.1481,1.1335,1.1331,1.1329,0,0,0,0,0,0,1.1444,1.144,1.1414,1.1431,1.1429,1.1455,1.1443,1.1449,1.1444,1.1465,1.147,1.1467,1.1482,1.148,1.1441,1.1404,1.1481,1.1479,1.1338,1.1334,1.133,1.1254,0,0,0,0,0,0,1.1445,1.144,1.1416,1.143,1.1428,1.1379,1.1441,1.1447,1.144,1.1447,1.1457,1.146,1.1484,1.1444,1.1439,1.1402,1.1477,1.1341,1.1336,1.1331,1.126,1.1248,1.1238,0,0,0,0,0,1.1446,1.1393,1.1414,1.141,1.1399,1.1377,1.1375,1.1404,1.1437,1.1413,1.1427,1.146,1.1409,1.1439,1.1434,1.1396,1.1344,1.1337,1.1332,1.1265,1.1251,1.1238,0,0,0,0,0,0,1.1371,1.1395,1.1419,1.1369,1.1371,1.1388,1.1359,1.1388,1.1378,1.1385,1.1421,1.1422,1.1378,1.1383,1.1417,1.1336,1.1382,1.1375,1.1333,1.132,1.1309,1.1308,1.1476,0,0,0,0,0,1.135,1.133,1.1352,1.1306,1.1306,1.1332,1.1323,1.1346,1.1348,1.1348,1.1359,1.1359,1.1343,1.1332,1.1318,1.1262,1.1265,1.1233,1.1222,1.1213,1.1206,1.1178,1.1164,1.1309,1.1309,1.1309,0,0,1.1303,1.1314,1.13,1.1292,1.1295,1.1274,1.1332,1.1306,1.1291,1.1344,1.1309,1.1317,1.1319,1.1271,1.1251,1.1275,1.1167,1.1205,1.1198,1.1196,1.117,1.1156,1.1144,1.1305,1.1305,1.1306,0,0,1.1209,1.1215,1.1178,1.1181,1.1187,1.1205,1.1196,1.1209,1.1217,1.1183,1.1223,1.1204,1.1176,1.1177,1.1173,1.1081,1.1111,1.1075,1.1017,1.0989,1.0977,1.0967,1.0935,1.0923,1.1069,1.1068,1.1068,0,1.1151,1.1121,1.1155,1.1128,1.1123,1.1173,1.1135,1.1136,1.1136,1.1132,1.1159,1.1126,1.113,1.1084,1.1062,1.1057,1.1048,1.1074,1.0976,1.0967,1.0958,1.0927,1.0915,1.1064,1.1064,1.1065,1.1065,0,1.105,1.1029,1.0998,1.0999,1.0991,1.0959,1.0988,1.0975,1.0999,1.1014,1.0978,1.0987,1.0976,1.0967,1.0989,1.0924,1.0939,1.097,1.1018,1.0939,1.0911,1.09,1.1058,1.1059,1.1061,1.1062,0,0,1.0907,1.0929,1.0917,1.0918,1.0929,1.0913,1.0883,1.0875,1.0864,1.0862,1.0838,1.0814,1.0845,1.0841,1.0863,1.0838,1.0766,1.0874,1.0874,1.0853,1.0695,1.0671,1.0657,1.0786,1.0784,1.0783,1.0695,0,1.0816,1.0768,1.0798,1.0745,1.0726,1.0774,1.0748,1.0751,1.0765,1.0751,1.0766,1.0748,1.0789,1.0787,1.0765,1.0779,1.0734,1.0786,1.0764,1.0763,1.0762,1.0643,1.0617,1.0534,1.0684,1.0683,1.0681,0,1.0703,1.07,1.0645,1.0661,1.0654,1.063,1.0626,1.0612,1.0617,1.0629,1.0625,1.0654,1.0626,1.0674,1.0635,1.067,1.0663,1.0668,1.0666,1.0665,1.0717,1.0638,1.0508,1.0495,1.0664,1.0666,1.0667,0,1.0605,1.0586,1.0551,1.0551,1.0568,1.0551,1.0557,1.0565,1.0558,1.0554,1.055,1.0542,1.0537,1.053,1.0557,1.0589,1.0515,1.0564,1.0524,1.0523,1.0506,1.0506,1.0372,1.0501,1.0501,1.0501,1.0501,0,1.0501,1.0465,1.0508,1.0486,1.0448,1.0484,1.0445,1.0456,1.0463,1.0444,1.0484,1.0465,1.0502,1.0486,1.0507,1.0472,1.047,1.0478,1.0484,1.0475,1.0474,1.047,1.0477,1.0498,1.0499,1.0499,1.05,0,1.0384,1.0411,1.0376,1.0397,1.0401,1.0372,1.0389,1.037,1.0387,1.0363,1.0359,1.0386,1.0371,1.0397,1.0384,1.0398,1.035,1.0364,1.0348,1.0353,1.0311,1.0315,1.017,1.0153,1.0292,1.0291,1.029,0,1.0315,1.029,1.0308,1.0299,1.0304,1.0289,1.0283,1.0317,1.0309,1.0314,1.0294,1.0283,1.0275,1.0248,1.0266,1.0257,1.0271,1.0222,1.027,1.0262,1.0271,1.0272,1.027,1.0211,1.021,1.0208,1.0207,0,1.0191,1.0206,1.0197,1.0193,1.0185,1.0183,1.0183,1.0174,1.021,1.0199,1.0185,1.0179,1.0167,1.0155,1.0151,1.0157,1.0187,1.0192,1.0182,1.0172,1.0164,1.0168,1.0321,1.0195,1.0196,1.0197,1.0198,1.0198,1.0096,1.0076,1.0087,1.0076,1.008,1.008,1.0064,1.008,1.0069,1.0063,1.0084,1.0065,1.0072,1.007,1.0072,1.0058,1.008,1.0065,1.0062,1.0058,1.0051,1.0167,1.0057,1.0057,1.0058,1.0058,1.0058,0,0.9974,0.9984,0.9974,0.9974,0.9966,0.9998,1.0001,0.9991,0.9974,0.9979,0.9971,0.9955,0.9944,0.9962,0.9954,0.9939,0.9953,0.9935,0.9937,0.9938,1.0032,1.0041,0.9924,0.9924,0.9924,0.9924,0.9924,0.9924,0.991,0.9878,0.9895,0.9866,0.9876,0.9859,0.9858,0.9858,0.9862,0.9843,0.9835,0.9847,0.9857,0.9851,0.9842,0.9847,0.9843,0.982,0.983,0.9918,0.9931,0.9943,0.9953,0.9819,0.9819,0.9738,0.9737,0.9737]}]]